Weather History for Meridian, MS

Change the Weather History Date:

Saturday, January 19, 2013

  Actual Average Record
Temperature  
Mean Temperature 44 °F 45 °F  
Max Temperature 60 °F 56 °F 82 °F (1982)
Min Temperature 28 °F 33 °F 4 °F (1977)
Degree Days  
Heating Degree Days 21 20  
Month to date heating degree days 330 391  
Since 1 July heating degree days 1286 1399  
Cooling Degree Days 0 0  
Month to date cooling degree days 11 0  
Year to date cooling degree days 11 0  
Moisture  
Dew Point 34 °F    
Average Humidity 72    
Maximum Humidity 100    
Minimum Humidity 44    
Precipitation  
Precipitation 0.00 in 0.19 in 3.55 in (1947)
Month to date precipitation 8.11 2.91  
Year to date precipitation 8.11 2.91  
Sea Level Pressure  
Sea Level Pressure 30.34 in    
Wind  
Wind Speed 2 mph (SW)    
Max Wind Speed 10 mph    
Max Gust Speed 13 mph    
Visibility 9 miles    
Events      
T = Trace of Precipitation, MM = Missing Value Source: NWS Daily Summary

Daily Weather History Graph

Daily Weather History Graph

Search for Another Location

Airport:

Trip Planner

Search our weather history database for the weather conditions in past years. The results will help you decide how hot, cold, wet, or windy it might be!

Date:

Astronomy

Jan. 19, 2013 Rise Set
Actual Time 6:55 AM CST 5:16 PM CST
Civil Twilight 6:29 AM CST 5:42 PM CST
Nautical Twilight 5:59 AM CST 6:12 PM CST
Astronomical Twilight 5:29 AM CST 6:42 PM CST
Moon 11:38 AM CST (1/19) 12:34 AM CST (1/19)
Length of Visible Light 11h 13m
Length of Day
10h 21m
First Quarter, 57% of the Moon is Illuminated
Jan 19
First Quarter
Jan 26
Full
Feb 3
Last Quarter
Feb 10
New
Feb 17
First Quarter

Hourly Weather History & Observations

Time (CST) Temp. Windchill Dew Point Humidity Pressure Visibility Wind Dir Wind Speed Gust Speed Precip Events Conditions
12:07 AM 30.2 °F - 28.4 °F 93% 30.40 in 2.5 mi Calm Calm - N/A   Partly Cloudy
12:10 AM 30.2 °F - 30.2 °F 100% 30.40 in 1.0 mi Calm Calm - N/A   Mist
12:20 AM 28.4 °F - 28.4 °F 100% 30.40 in 2.0 mi Calm Calm - N/A   Scattered Clouds
12:28 AM 28.4 °F - 28.4 °F 100% 30.40 in 10.0 mi Calm Calm - N/A   Scattered Clouds
12:58 AM 30.0 °F - 28.0 °F 92% 30.40 in 10.0 mi Calm Calm - N/A   Clear
1:58 AM 28.9 °F - 28.0 °F 96% 30.40 in 10.0 mi Calm Calm - N/A   Clear
2:58 AM 28.9 °F - 28.0 °F 96% 30.41 in 10.0 mi Calm Calm - N/A   Clear
3:58 AM 28.9 °F - 28.0 °F 96% 30.40 in 10.0 mi Calm Calm - N/A   Clear
4:58 AM 28.0 °F - 27.0 °F 96% 30.39 in 10.0 mi Calm Calm - N/A   Clear
5:58 AM 28.0 °F - 27.0 °F 96% 30.39 in 10.0 mi Calm Calm - N/A   Clear
6:58 AM 28.0 °F - 27.0 °F 96% 30.40 in 10.0 mi Calm Calm - N/A   Clear
7:58 AM 30.9 °F - 30.0 °F 96% 30.41 in 10.0 mi Calm Calm - N/A   Clear
8:58 AM 37.0 °F - 34.0 °F 89% 30.41 in 10.0 mi Calm Calm - N/A   Clear
9:58 AM 45.0 °F 43.5 °F 37.9 °F 76% 30.41 in 10.0 mi SSW 3.5 mph - N/A   Clear
10:58 AM 53.1 °F - 35.1 °F 50% 30.38 in 10.0 mi Variable 4.6 mph - N/A   Clear
11:58 AM 55.0 °F - 37.9 °F 53% 30.33 in 10.0 mi SSW 9.2 mph - N/A   Clear
12:58 PM 57.0 °F - 37.0 °F 47% 30.30 in 10.0 mi Variable 3.5 mph - N/A   Clear
1:58 PM 59.0 °F - 39.0 °F 48% 30.28 in 10.0 mi SSW 9.2 mph - N/A   Clear
2:58 PM 59.0 °F - 37.0 °F 44% 30.26 in 10.0 mi SW 5.8 mph - N/A   Clear
3:58 PM 57.9 °F - 37.0 °F 46% 30.25 in 10.0 mi SW 4.6 mph - N/A   Clear
4:58 PM 55.9 °F - 37.9 °F 51% 30.25 in 10.0 mi WSW 3.5 mph - N/A   Clear
5:58 PM 46.9 °F - 43.0 °F 86% 30.26 in 10.0 mi Calm Calm - N/A   Clear
6:58 PM 43.0 °F - 41.0 °F 93% 30.27 in 10.0 mi Calm Calm - N/A   Clear
7:58 PM 41.0 °F - 39.9 °F 96% 30.28 in 10.0 mi Calm Calm - N/A   Clear
8:58 PM 39.9 °F - 39.0 °F 97% 30.27 in 10.0 mi Calm Calm - N/A   Clear
9:58 PM 37.9 °F - 37.0 °F 97% 30.26 in 10.0 mi Calm Calm - N/A   Clear
10:58 PM 37.9 °F 34.4 °F 37.0 °F 97% 30.25 in 10.0 mi SSW 4.6 mph - N/A   Clear
11:58 PM 36.0 °F - 35.1 °F 97% 30.25 in 10.0 mi Calm Calm - N/A   Clear